“In life, you're either a passenger or a pilot. It’s your choice.”

WELCOME TO YOUR AVIATION DREAM!

What's new Up There Icon

WHAT’S NEW HERE?

4000+ aviation terms, acronyms and definitions!
Make your study a little easier with the aviation glossaries that gather over 4000 terms and acronyms extracted from weather, communications, technical and more general topics…
Partnership Icon

PARTNESHIP ANNOUCEMENT

I am proud to announce a partnership with nizul Logo, study partner of every pilot who wants to consolidate their ground school knowledge and master their written examination.

Try Me Icon

ALL YOURS FOR 30 MINUTES!

Not sure you’d get along with a freelance instructor? How about giving it a try with a 30 minute flight?
My treat! All free.

Resources Tool Box

STUDENT RESOURCES

As a registered student training with me, you get access to a whole lot of files, tools, documents, aviation glossaries, videos, quizzes, sample tests, etc… 

Control Tower Icon

QUESTIONS? CHECK F.A.Q.

In aviation, the only stupid question is the one you didn’t ask. And there is a big chance yours has already been answered in the FAQ. Check it out!

Brain Icon

ARE YOU WIRED FOR FLYING?

Flying an aircraft is usually not the most difficult part of the “problem” and it takes a certain mindset to deal with the other aspects of a flight. Find out wether…

THEY DID IT!

Meet those who refused to be the passengers of their lives, and learn about their experience.

QUICK FACTS

Aviation is a world of serious numbers.
Here are my own, and they count as much as the other ones.

0
YEARS OF
WISDOM
0
YEARS OF
SKY FUN
0
AMAZING
STUDENTS
0
HOURS OF
PURE EXCITEMENT

Grow some wings,
Come fly with me!

Vancouver Island Weather

METARs and TAFs.
VICTORIA INTL (CYYJ)
METAR:

CYYJ 310900Z 27005KT 20SM SKC 04/02 A3033 RMK SLP271

TAF:

TAF CYYJ 310538Z 3106/0106 VRB03KT P6SM BKN050 TEMPO 3106/3112 SCT050 FM311200 27005KT P6SM SCT020 TEMPO 3112/3119 BKN020 FM311900 09005KT P6SM FEW020 SCT100 RMK NXT FCST BY 311200Z

NANAIMO (CYCD)
METAR:

CYCD 310400Z 24004KT 220V290 20SM SCT051 BKN210 08/03 A3024 RMK SC4CI1 LAST STFD OBS/NEXT 311300Z SLP242

TAF:

TAF CYCD 301738Z 3018/3104 35012G22KT P6SM FEW040 TEMPO 3018/3104 BKN040 BECMG 3018/3020 36006KT RMK NXT FCST BY 310000Z

LONG BEACH (CYAZ)
METAR:

CYAZ 310100Z 30009KT 15SM FEW230 10/06 A3017 RMK CI1 LAST STFD OBS/NXT 311300UTC SLP219

TAF:

TAF CYAZ 301838Z 3019/3101 30015G25KT P6SM FEW030 RMK NXT FCST WILL BE ISSUED AT 311445Z

For more in-depth weather information, please, check Collaborative Flight Planning Service

For all Runway conditions in CYYJ, please check

IIDS Web View

Windy’s Forecast & Observations